TimeIST,TemperatureF,Dew PointF,Humidity,Sea Level PressureIn,VisibilityMPH,Wind Direction,Wind SpeedMPH,Gust SpeedMPH,PrecipitationIn,Events,Conditions,WindDirDegrees,DateUTC
12:10 AM,69.8,57.2,64,29.92,2.5,NE,3.5,-,N/A,,Haze,50,2012-12-04 18:40:00
12:40 AM,69.8,57.2,64,29.92,2.5,NE,3.5,-,N/A,,Haze,50,2012-12-04 19:10:00
1:10 AM,68.0,55.4,64,29.92,2.5,NE,3.5,-,N/A,,Haze,50,2012-12-04 19:40:00
1:40 AM,66.2,55.4,68,29.92,2.5,NE,3.5,-,N/A,,Haze,40,2012-12-04 20:10:00
2:10 AM,66.2,55.4,68,29.92,2.5,NNE,3.5,-,N/A,,Haze,30,2012-12-04 20:40:00
2:30 AM,69,60,65,29.92,2,ENE,2.3,,,,,70,2012-12-04 21:00:00
2:40 AM,66.2,55.4,68,29.89,2.5,NE,3.5,-,N/A,,Haze,50,2012-12-04 21:10:00
3:10 AM,68.0,55.4,64,29.89,2.5,NE,3.5,-,N/A,,Haze,50,2012-12-04 21:40:00
3:40 AM,68.0,55.4,64,29.89,2.5,NE,3.5,-,N/A,,Haze,50,2012-12-04 22:10:00
4:10 AM,68.0,57.2,68,29.89,2.5,NE,4.6,-,N/A,,Haze,50,2012-12-04 22:40:00
4:40 AM,68.0,57.2,68,29.89,2.5,ENE,4.6,-,N/A,,Haze,60,2012-12-04 23:10:00
5:10 AM,66.2,57.2,73,29.92,2.5,NE,3.5,-,N/A,,Haze,50,2012-12-04 23:40:00
5:30 AM,68,57,60,29.93,2,NE,4.6,,,,,50,2012-12-05 00:00:00
5:40 AM,64.4,57.2,77,29.92,2.5,NE,3.5,-,N/A,,Haze,50,2012-12-05 00:10:00
6:10 AM,66.2,55.4,68,29.92,2.2,ENE,4.6,-,N/A,,Haze,60,2012-12-05 00:40:00
6:40 AM,66.2,55.4,68,29.92,2.2,ENE,4.6,-,N/A,,Haze,60,2012-12-05 01:10:00
7:40 AM,68.0,55.4,64,29.95,1.6,East,9.2,-,N/A,,Haze,80,2012-12-05 02:10:00
8:30 AM,70,59,59,29.98,2,East,4.6,,,,Haze,90,2012-12-05 03:00:00
8:40 AM,71.6,55.4,57,29.98,1.6,East,10.4,-,N/A,,Haze,90,2012-12-05 03:10:00
9:40 AM,75.2,55.4,50,29.98,2.2,ENE,10.4,-,N/A,,Haze,70,2012-12-05 04:10:00
11:10 AM,82.4,57.2,42,29.98,3.1,ENE,8.1,-,N/A,,Smoke,70,2012-12-05 05:40:00
11:30 AM,83,59,34,29.99,2,NE,3.5,,,,Clear,50,2012-12-05 06:00:00
11:40 AM,84.2,55.4,37,29.98,3.7,ENE,9.2,-,N/A,,Unknown,60,2012-12-05 06:10:00
12:10 PM,84.2,55.4,37,29.95,3.7,ENE,9.2,-,N/A,,Unknown,70,2012-12-05 06:40:00
12:40 PM,86.0,55.4,35,29.92,3.7,East,10.4,-,N/A,,Unknown,80,2012-12-05 07:10:00
1:10 PM,87.8,53.6,31,29.92,3.7,ENE,11.5,-,N/A,,Unknown,70,2012-12-05 07:40:00
1:40 PM,87.8,51.8,29,29.89,3.7,ENE,11.5,-,N/A,,Unknown,60,2012-12-05 08:10:00
2:10 PM,87.8,53.6,31,29.89,3.7,NE,11.5,-,N/A,,Unknown,50,2012-12-05 08:40:00
2:30 PM,87,55,24,29.92,2,NE,9.2,,,,Clear,50,2012-12-05 09:00:00
2:40 PM,87.8,53.6,31,29.89,3.7,NNE,11.5,-,N/A,,Unknown,30,2012-12-05 09:10:00
3:10 PM,89.6,51.8,27,29.86,3.7,East,11.5,-,N/A,,Unknown,80,2012-12-05 09:40:00
3:40 PM,87.8,51.8,29,29.86,3.7,East,10.4,-,N/A,,Unknown,80,2012-12-05 10:10:00
4:10 PM,87.8,50.0,27,29.86,3.7,East,11.5,-,N/A,,Unknown,80,2012-12-05 10:40:00
4:40 PM,87.8,50.0,27,29.86,3.7,NE,11.5,-,N/A,,Unknown,50,2012-12-05 11:10:00
5:10 PM,86.0,51.8,31,29.86,3.7,East,9.2,-,N/A,,Unknown,80,2012-12-05 11:40:00
5:30 PM,83,51,23,29.90,2,East,9.2,,,,Clear,90,2012-12-05 12:00:00
6:10 PM,82.4,51.8,35,29.86,2.5,East,4.6,-,N/A,,Smoke,80,2012-12-05 12:40:00
8:10 PM,71.6,53.6,53,29.92,2.5,NNE,4.6,-,N/A,,Smoke,30,2012-12-05 14:40:00
8:30 PM,72,60,56,29.95,2,North,3.5,,,,Haze,0,2012-12-05 15:00:00
8:40 PM,71.6,53.6,53,29.92,2.5,NE,3.5,-,N/A,,Smoke,50,2012-12-05 15:10:00
9:40 PM,69.8,55.4,60,29.95,2.5,Variable,2.3,-,N/A,,Smoke,0,2012-12-05 16:10:00
10:10 PM,69.8,53.6,56,29.95,2.5,NE,4.6,-,N/A,,Smoke,40,2012-12-05 16:40:00
10:40 PM,68.0,53.6,60,29.95,2.5,NE,4.6,-,N/A,,Smoke,40,2012-12-05 17:10:00
11:10 PM,66.2,53.6,64,29.95,2.5,NE,4.6,-,N/A,,Smoke,40,2012-12-05 17:40:00
11:30 PM,72,57,49,29.97,2,North,5.8,,,,Haze,0,2012-12-05 18:00:00
11:40 PM,69.8,51.8,53,29.95,2.5,ENE,4.6,-,N/A,,Smoke,60,2012-12-05 18:10:00